Location: Makanda
(37.6176°N, 89.2090°W)
Time: 19:37:12
(UTC+00:00)

Meteor 1-11 Rocket - Pass Details

Date: 23 September 2019
Orbit: 830 x 916 km, 81.2° (Epoch: 22 October)

Event Time Altitude Azimuth Distance (km) Brightness Sun altitude
Rises 09:16:49 0° 354° (N) 3,410 7.1 -29.3°
Reaches altitude 10° 09:19:17 10° 357° (N) 2,462 6.3 -28.9°
Maximum altitude 09:24:49 65° 79° (E) 913 4.0 -27.9°
Drops below altitude 10° 09:30:15 10° 162° (SSE) 2,428 6.0 -26.9°
Sets 09:32:40 0° 165° (SSE) 3,359 6.8 -26.4°
